Weather History for KLNK - January, 2010

Change the Weather History Date:

Saturday, January 2, 2010

  Actual Average Record
Temperature  
Mean Temperature -2 °F 24 °F  
Max Temperature 4 °F 35 °F 72 °F (1939)
Min Temperature -9 °F 14 °F -22 °F (1887)
Degree Days  
Heating Degree Days 67 40  
Month to date heating degree days 128 80  
Since 1 July heating degree days 2819 2525  
Cooling Degree Days 0 0  
Month to date cooling degree days 0 0  
Year to date cooling degree days 0 0  
Moisture  
Dew Point -6 °F    
Average Humidity 75    
Maximum Humidity 87    
Minimum Humidity 62    
Precipitation  
Precipitation 0.14 in 0.02 in 0.34 in (1975)
Month to date precipitation 0.14 0.04  
Year to date precipitation 0.14 0.04  
Snow  
Snow 2.40 in 0.10 in - ()
Month to date snowfall 2.4 0.3  
Since 1 July snowfall 27.9 9.0  
Snow Depth 12.00 in    
Sea Level Pressure  
Sea Level Pressure 30.51 in    
Wind  
Wind Speed 5 mph (East)    
Max Wind Speed 13 mph    
Max Gust Speed 15 mph    
Visibility 5 miles    
Events Snow    
T = Trace of Precipitation, MM = Missing Value Source: NWS Daily Summary

Daily Weather History Graph

Daily Weather History Graph

Search for Another Location

Airport or City:

Trip Planner

Search our weather history database for the weather conditions in past years. The results will help you decide how hot, cold, wet, or windy it might be!

Date:

Astronomy

Jan. 02, 2010 Rise Set
Actual Time 7:51 AM CST 5:10 PM CST
Civil Twilight 7:20 AM CST 5:41 PM CST
Nautical Twilight 6:46 AM CST 6:16 PM CST
Astronomical Twilight 6:13 AM CST 6:49 PM CST
Moon 7:51 PM CST (1/2) 9:17 AM CST (1/2)
Length of Visible Light 10h 20m
Length of Day
9h 19m
Waning Gibbous, 94% of the Moon is Illuminated
Jan 2
Waning Gibbous
Jan 7
Last Quarter
Jan 15
New
Jan 23
First Quarter
Jan 30
Full

Hourly Weather History & Observations

Time (CST) Temp. Windchill Dew Point Humidity Pressure Visibility Wind Dir Wind Speed Gust Speed Precip Events Conditions
12:54 AM -4.0 °F -12.4 °F -11.0 °F 72% 30.69 in 10.0 mi WNW 3.5 mph - N/A   Clear
1:54 AM -7.1 °F -18.1 °F -11.9 °F 79% 30.69 in 10.0 mi North 4.6 mph - N/A   Clear
2:54 AM -8.0 °F - -13.0 °F 79% 30.70 in 10.0 mi Calm Calm - N/A   Clear
3:54 AM -8.0 °F - -13.0 °F 79% 30.68 in 10.0 mi Calm Calm - N/A   Clear
4:54 AM -9.0 °F -20.4 °F -15.0 °F 75% 30.67 in 10.0 mi North 4.6 mph - N/A   Clear
5:54 AM -7.1 °F -18.1 °F -13.0 °F 75% 30.66 in 10.0 mi NNE 4.6 mph - N/A   Scattered Clouds
6:54 AM -5.1 °F -19.1 °F -11.9 °F 72% 30.63 in 10.0 mi ENE 6.9 mph - N/A   Overcast
7:54 AM -5.1 °F - -11.9 °F 72% 30.65 in 10.0 mi Calm Calm - N/A   Overcast
8:54 AM -4.0 °F -14.6 °F -11.9 °F 69% 30.63 in 10.0 mi East 4.6 mph - N/A   Overcast
9:54 AM -2.9 °F -13.3 °F -11.0 °F 68% 30.63 in 10.0 mi East 4.6 mph - N/A   Overcast
10:54 AM -0.0 °F - -9.0 °F 66% 30.63 in 10.0 mi Calm Calm - N/A   Overcast
11:54 AM 1.9 °F -5.6 °F -8.0 °F 63% 30.58 in 10.0 mi ESE 3.5 mph - N/A   Mostly Cloudy
12:54 PM 3.0 °F -8.0 °F -8.0 °F 60% 30.55 in 10.0 mi East 5.8 mph - N/A   Overcast
1:54 PM 3.0 °F -6.4 °F -8.0 °F 60% 30.54 in 10.0 mi ESE 4.6 mph - N/A   Mostly Cloudy
2:25 PM 3.2 °F -4.2 °F -7.6 °F 61% 30.42 in 5.0 mi SE 3.5 mph - 0.00 in Snow Light Snow
2:32 PM 3.2 °F - -5.8 °F 66% 30.42 in 2.5 mi Calm Calm - 0.00 in Snow Light Snow
2:43 PM 3.2 °F -6.2 °F -5.8 °F 66% 30.42 in 2.5 mi SE 4.6 mph - 0.00 in Snow Light Snow
2:46 PM 3.2 °F -6.2 °F -4.0 °F 72% 30.42 in 1.0 mi SE 4.6 mph - 0.01 in Snow Light Snow
2:54 PM 3.0 °F -6.4 °F -4.0 °F 73% 30.52 in 0.8 mi ESE 4.6 mph - 0.01 in Snow Light Snow
3:51 PM 3.2 °F -7.8 °F -4.0 °F 72% 30.41 in 1.0 mi East 5.8 mph - 0.02 in Snow Light Snow
3:54 PM 3.0 °F -8.0 °F -2.9 °F 76% 30.52 in 1.0 mi East 5.8 mph - 0.02 in Snow Light Snow
4:08 PM 1.4 °F -12.5 °F -4.0 °F 78% 30.41 in 0.8 mi ENE 8.1 mph - 0.01 in Snow Light Snow
4:33 PM 1.4 °F -9.9 °F -4.0 °F 78% 30.41 in 1.2 mi East 5.8 mph - 0.02 in Snow Light Snow
4:43 PM 3.2 °F -7.8 °F -4.0 °F 72% 30.41 in 1.8 mi East 5.8 mph - 0.02 in Snow Light Snow
4:50 PM 3.2 °F -7.8 °F -4.0 °F 72% 30.41 in 2.5 mi East 5.8 mph - 0.02 in Snow Light Snow
4:54 PM 3.0 °F -6.4 °F -4.0 °F 73% 30.52 in 2.5 mi ESE 4.6 mph - 0.02 in Snow Light Snow
5:05 PM 1.4 °F -9.9 °F -2.2 °F 85% 30.41 in 1.0 mi ENE 5.8 mph - 0.00 in Snow Light Snow
5:13 PM 3.2 °F -6.2 °F -2.2 °F 78% 30.41 in 0.5 mi East 4.6 mph - 0.00 in Snow Snow
5:31 PM 3.2 °F -7.8 °F -2.2 °F 78% 30.42 in 1.5 mi East 5.8 mph - 0.01 in Snow Light Snow
5:54 PM 1.9 °F -9.2 °F -2.9 °F 80% 30.53 in 1.2 mi ENE 5.8 mph - 0.02 in Snow Light Snow
6:54 PM 1.9 °F -13.8 °F -2.9 °F 80% 30.52 in 1.8 mi East 10.4 mph - 0.03 in Snow Light Snow
7:01 PM 1.4 °F -13.5 °F -2.2 °F 85% 30.42 in 2.0 mi ENE 9.2 mph - 0.00 in Snow Light Snow
7:10 PM 1.4 °F -13.5 °F -2.2 °F 85% 30.42 in 1.5 mi East 9.2 mph - 0.00 in Snow Light Snow
7:23 PM 1.4 °F -12.5 °F -2.2 °F 85% 30.42 in 1.2 mi East 8.1 mph - 0.00 in Snow Light Snow
7:35 PM 1.4 °F -9.9 °F -2.2 °F 85% 30.43 in 2.0 mi ENE 5.8 mph - 0.00 in Snow Light Snow
7:54 PM 1.9 °F -11.8 °F -2.9 °F 80% 30.52 in 1.5 mi ENE 8.1 mph - 0.01 in Snow Light Snow
8:11 PM 3.2 °F -7.8 °F -2.2 °F 78% 30.42 in 1.5 mi East 5.8 mph - 0.01 in Snow Light Snow
8:52 PM 3.2 °F -7.8 °F -2.2 °F 78% 30.42 in 2.0 mi East 5.8 mph - 0.02 in Snow Light Snow
8:54 PM 3.0 °F -8.0 °F -2.9 °F 76% 30.52 in 2.5 mi East 5.8 mph - 0.02 in Snow Light Snow
9:02 PM 3.2 °F -9.1 °F -2.2 °F 78% 30.41 in 4.0 mi East 6.9 mph - 0.00 in Snow Light Snow
9:54 PM 3.0 °F -11.5 °F -2.9 °F 76% 30.52 in 8.0 mi East 9.2 mph - 0.00 in   Overcast
10:54 PM 3.0 °F -8.0 °F -2.9 °F 76% 30.52 in 7.0 mi East 5.8 mph - 0.00 in Snow Light Snow
11:54 PM 3.9 °F -5.3 °F -2.0 °F 76% 30.51 in 5.0 mi ESE 4.6 mph - 0.01 in Snow Light Snow